Time,TemperatureF,DewpointF,PressureIn,WindDirection,WindDirectionDegrees,WindSpeedMPH,WindSpeedGustMPH,Humidity,HourlyPrecipIn,Conditions,Clouds,dailyrainin,SoftwareType,DateUTC
2013-01-13 00:02:00,32.0,25.0,-100.00,ENE,62,1.0,1.0,75,-99.99,,,-99.99,,2013-01-13 08:02:00,
2013-01-13 00:11:00,33.0,25.0,-100.00,East,87,1.0,3.0,72,-99.99,,,-99.99,,2013-01-13 08:11:00,
2013-01-13 00:22:00,33.0,25.0,-100.00,NNE,25,0.0,1.0,73,-99.99,,,-99.99,,2013-01-13 08:22:00,
2013-01-13 00:32:00,32.0,24.0,-100.00,East,82,0.0,1.0,73,-99.99,,,-99.99,,2013-01-13 08:32:00,
2013-01-13 00:42:00,30.0,23.0,-100.00,SSW,204,0.0,1.0,75,-99.99,,,-99.99,,2013-01-13 08:42:00,
2013-01-13 00:52:00,29.0,24.0,-100.00,SW,214,0.0,1.0,80,-99.99,,,-99.99,,2013-01-13 08:52:00,
2013-01-13 01:02:00,29.0,24.0,-100.00,SW,214,0.0,1.0,80,-99.99,,,-99.99,,2013-01-13 09:02:00,
2013-01-13 01:11:00,29.0,24.0,-100.00,WSW,248,0.0,1.0,81,-99.99,,,-99.99,,2013-01-13 09:11:00,
2013-01-13 01:22:00,29.0,24.0,-100.00,SW,232,0.0,1.0,81,-99.99,,,-99.99,,2013-01-13 09:22:00,
2013-01-13 01:32:00,29.0,25.0,-100.00,WSW,237,0.0,1.0,83,-99.99,,,-99.99,,2013-01-13 09:32:00,
2013-01-13 01:42:00,29.0,24.0,-100.00,North,354,0.0,1.0,82,-99.99,,,-99.99,,2013-01-13 09:42:00,
2013-01-13 01:52:00,30.0,25.0,-100.00,NE,44,1.0,2.0,82,-99.99,,,-99.99,,2013-01-13 09:52:00,
2013-01-13 02:02:00,31.0,25.0,-100.00,East,80,0.0,2.0,78,-99.99,,,-99.99,,2013-01-13 10:02:00,
2013-01-13 02:11:00,31.0,25.0,-100.00,NE,39,1.0,2.0,78,-99.99,,,-99.99,,2013-01-13 10:11:00,
2013-01-13 02:22:00,31.0,25.0,-100.00,NE,50,1.0,2.0,78,-99.99,,,-99.99,,2013-01-13 10:22:00,
2013-01-13 02:32:00,33.0,25.0,-100.00,NE,52,1.0,2.0,73,-99.99,,,-99.99,,2013-01-13 10:32:00,
2013-01-13 02:42:00,33.0,25.0,-100.00,North,358,1.0,2.0,73,-99.99,,,-99.99,,2013-01-13 10:42:00,
2013-01-13 02:52:00,32.0,24.0,-100.00,ESE,116,0.0,2.0,73,-99.99,,,-99.99,,2013-01-13 10:52:00,
2013-01-13 03:02:00,31.0,24.0,-100.00,NW,325,0.0,1.0,75,-99.99,,,-99.99,,2013-01-13 11:02:00,
2013-01-13 03:12:00,30.0,24.0,-100.00,NNE,21,1.0,1.0,78,-99.99,,,-99.99,,2013-01-13 11:12:00,
2013-01-13 03:22:00,29.0,24.0,-100.00,SSW,209,0.0,1.0,80,-99.99,,,-99.99,,2013-01-13 11:22:00,
2013-01-13 03:32:00,29.0,24.0,-100.00,SSW,206,0.0,1.0,81,-99.99,,,-99.99,,2013-01-13 11:32:00,
2013-01-13 03:42:00,29.0,24.0,-100.00,East,93,0.0,1.0,81,-99.99,,,-99.99,,2013-01-13 11:42:00,
2013-01-13 03:52:00,28.0,23.0,-100.00,NE,52,0.0,2.0,81,-99.99,,,-99.99,,2013-01-13 11:52:00,
2013-01-13 04:02:00,29.0,24.0,-100.00,NE,54,0.0,1.0,82,-99.99,,,-99.99,,2013-01-13 12:02:00,
2013-01-13 04:12:00,29.0,24.0,-100.00,NE,36,0.0,1.0,81,-99.99,,,-99.99,,2013-01-13 12:12:00,
2013-01-13 04:22:00,29.0,24.0,-100.00,NE,45,0.0,1.0,81,-99.99,,,-99.99,,2013-01-13 12:22:00,
2013-01-13 04:32:00,30.0,25.0,-100.00,NNE,22,1.0,1.0,80,-99.99,,,-99.99,,2013-01-13 12:32:00,
2013-01-13 04:42:00,31.0,25.0,-100.00,NNE,24,0.0,1.0,78,-99.99,,,-99.99,,2013-01-13 12:42:00,
2013-01-13 04:52:00,30.0,24.0,-100.00,ENE,71,0.0,2.0,77,-99.99,,,-99.99,,2013-01-13 12:52:00,
2013-01-13 05:02:00,30.0,24.0,-100.00,ENE,76,0.0,1.0,78,-99.99,,,-99.99,,2013-01-13 13:02:00,
2013-01-13 05:12:00,30.0,24.0,-100.00,ENE,70,0.0,1.0,79,-99.99,,,-99.99,,2013-01-13 13:12:00,
2013-01-13 05:22:00,31.0,25.0,-100.00,NE,37,0.0,1.0,77,-99.99,,,-99.99,,2013-01-13 13:22:00,
2013-01-13 05:32:00,32.0,23.0,-100.00,North,10,0.0,1.0,69,-99.99,,,-99.99,,2013-01-13 13:32:00,
2013-01-13 05:42:00,32.0,23.0,-100.00,North,10,0.0,1.0,69,-99.99,,,-99.99,,2013-01-13 13:42:00,
2013-01-13 05:53:00,33.0,23.0,-100.00,NNE,30,1.0,4.0,67,-99.99,,,-99.99,,2013-01-13 13:53:00,
2013-01-13 06:02:00,33.0,22.0,-100.00,NE,43,2.0,4.0,64,-99.99,,,-99.99,,2013-01-13 14:02:00,
2013-01-13 06:12:00,34.0,22.0,-100.00,North,358,1.0,2.0,61,-99.99,,,-99.99,,2013-01-13 14:12:00,
2013-01-13 06:22:00,32.0,22.0,-100.00,North,2,1.0,3.0,67,-99.99,,,-99.99,,2013-01-13 14:22:00,
2013-01-13 06:32:00,35.0,22.0,-100.00,NE,34,3.0,6.0,58,-99.99,,,-99.99,,2013-01-13 14:32:00,
2013-01-13 06:42:00,35.0,21.0,-100.00,NNE,30,4.0,7.0,56,-99.99,,,-99.99,,2013-01-13 14:42:00,
2013-01-13 06:52:00,34.0,21.0,-100.00,NE,53,2.0,4.0,58,-99.99,,,-99.99,,2013-01-13 14:52:00,
2013-01-13 07:02:00,34.0,21.0,-100.00,NNE,16,2.0,5.0,59,-99.99,,,-99.99,,2013-01-13 15:02:00,
2013-01-13 07:12:00,33.0,21.0,-100.00,NNE,33,1.0,3.0,60,-99.99,,,-99.99,,2013-01-13 15:12:00,
2013-01-13 07:22:00,33.0,20.0,-100.00,North,3,1.0,4.0,59,-99.99,,,-99.99,,2013-01-13 15:22:00,
2013-01-13 07:33:00,33.0,20.0,-100.00,NE,49,1.0,3.0,59,-99.99,,,-99.99,,2013-01-13 15:33:00,
2013-01-13 07:42:00,33.0,20.0,-100.00,North,9,0.0,1.0,59,-99.99,,,-99.99,,2013-01-13 15:42:00,
2013-01-13 07:52:00,34.0,20.0,-100.00,ENE,68,1.0,3.0,55,-99.99,,,-99.99,,2013-01-13 15:52:00,
2013-01-13 08:03:00,37.0,19.0,-100.00,NNE,12,1.0,3.0,48,-99.99,,,-99.99,,2013-01-13 16:03:00,
2013-01-13 08:12:00,37.0,20.0,-100.00,NE,53,1.0,3.0,50,-99.99,,,-99.99,,2013-01-13 16:12:00,
2013-01-13 08:22:00,38.0,20.0,-100.00,ENE,59,1.0,6.0,48,-99.99,,,-99.99,,2013-01-13 16:22:00,
2013-01-13 08:33:00,38.0,21.0,-100.00,ENE,71,1.0,3.0,50,-99.99,,,-99.99,,2013-01-13 16:33:00,
2013-01-13 08:42:00,39.0,20.0,-100.00,SSE,157,0.0,1.0,47,-99.99,,,-99.99,,2013-01-13 16:42:00,
2013-01-13 08:52:00,42.0,21.0,-100.00,WSW,237,1.0,1.0,42,-99.99,,,-99.99,,2013-01-13 16:52:00,
2013-01-13 09:02:00,44.0,20.0,-100.00,SW,228,0.0,1.0,38,-99.99,,,-99.99,,2013-01-13 17:02:00,
2013-01-13 09:12:00,46.0,21.0,-100.00,ESE,121,1.0,2.0,36,-99.99,,,-99.99,,2013-01-13 17:12:00,
2013-01-13 09:22:00,49.0,18.0,-100.00,ENE,65,1.0,4.0,29,-99.99,,,-99.99,,2013-01-13 17:22:00,
2013-01-13 09:32:00,50.0,17.0,-100.00,SE,128,1.0,3.0,27,-99.99,,,-99.99,,2013-01-13 17:32:00,
2013-01-13 09:42:00,51.0,21.0,-100.00,SSW,212,1.0,2.0,30,-99.99,,,-99.99,,2013-01-13 17:42:00,
2013-01-13 09:52:00,50.0,18.0,-100.00,SW,236,1.0,3.0,28,-99.99,,,-99.99,,2013-01-13 17:52:00,
2013-01-13 10:02:00,51.0,16.0,-100.00,West,272,2.0,4.0,25,-99.99,,,-99.99,,2013-01-13 18:02:00,
2013-01-13 10:12:00,52.0,16.0,-100.00,SSW,193,1.0,3.0,24,-99.99,,,-99.99,,2013-01-13 18:12:00,
2013-01-13 10:22:00,52.0,15.0,-100.00,SW,224,1.0,4.0,23,-99.99,,,-99.99,,2013-01-13 18:22:00,
2013-01-13 10:32:00,53.0,16.0,-100.00,South,169,1.0,3.0,23,-99.99,,,-99.99,,2013-01-13 18:32:00,
2013-01-13 10:42:00,52.0,15.0,-100.00,SW,219,2.0,5.0,23,-99.99,,,-99.99,,2013-01-13 18:42:00,
2013-01-13 10:53:00,53.0,16.0,-100.00,SSW,202,2.0,5.0,23,-99.99,,,-99.99,,2013-01-13 18:53:00,
2013-01-13 11:02:00,53.0,16.0,-100.00,SSW,200,1.0,5.0,23,-99.99,,,-99.99,,2013-01-13 19:02:00,
2013-01-13 11:12:00,54.0,17.0,-100.00,SSW,198,1.0,5.0,23,-99.99,,,-99.99,,2013-01-13 19:12:00,
2013-01-13 11:22:00,55.0,17.0,-100.00,South,178,2.0,9.0,22,-99.99,,,-99.99,,2013-01-13 19:22:00,
2013-01-13 11:32:00,55.0,17.0,-100.00,SSE,151,2.0,6.0,22,-99.99,,,-99.99,,2013-01-13 19:32:00,
2013-01-13 11:42:00,54.0,16.0,-100.00,SW,223,3.0,6.0,22,-99.99,,,-99.99,,2013-01-13 19:42:00,
2013-01-13 11:52:00,54.0,16.0,-100.00,SSW,200,2.0,7.0,22,-99.99,,,-99.99,,2013-01-13 19:52:00,
2013-01-13 12:02:00,54.0,15.0,-100.00,South,184,2.0,8.0,21,-99.99,,,-99.99,,2013-01-13 20:02:00,
2013-01-13 12:12:00,55.0,16.0,-100.00,West,272,2.0,7.0,21,-99.99,,,-99.99,,2013-01-13 20:12:00,
2013-01-13 12:22:00,55.0,17.0,-100.00,WSW,240,5.0,11.0,22,-99.99,,,-99.99,,2013-01-13 20:22:00,
2013-01-13 12:32:00,54.0,16.0,-100.00,West,279,3.0,8.0,22,-99.99,,,-99.99,,2013-01-13 20:32:00,
2013-01-13 12:43:00,55.0,17.0,-100.00,WSW,251,3.0,8.0,22,-99.99,,,-99.99,,2013-01-13 20:43:00,
2013-01-13 12:52:00,54.0,16.0,-100.00,SW,222,4.0,9.0,22,-99.99,,,-99.99,,2013-01-13 20:52:00,
2013-01-13 13:02:00,55.0,18.0,-100.00,SW,214,4.0,12.0,23,-99.99,,,-99.99,,2013-01-13 21:02:00,
2013-01-13 13:12:00,54.0,17.0,-100.00,SSW,206,3.0,9.0,23,-99.99,,,-99.99,,2013-01-13 21:12:00,
2013-01-13 13:22:00,54.0,18.0,-100.00,SSW,207,4.0,11.0,24,-99.99,,,-99.99,,2013-01-13 21:22:00,
2013-01-13 13:32:00,55.0,19.0,-100.00,SW,230,5.0,11.0,24,-99.99,,,-99.99,,2013-01-13 21:32:00,
2013-01-13 13:42:00,55.0,18.0,-100.00,WSW,238,4.0,8.0,23,-99.99,,,-99.99,,2013-01-13 21:42:00,
2013-01-13 13:52:00,54.0,17.0,-100.00,WSW,248,5.0,10.0,23,-99.99,,,-99.99,,2013-01-13 21:52:00,
2013-01-13 14:02:00,54.0,17.0,-100.00,WSW,238,4.0,11.0,23,-99.99,,,-99.99,,2013-01-13 22:02:00,
2013-01-13 14:12:00,54.0,18.0,-100.00,WSW,241,5.0,10.0,24,-99.99,,,-99.99,,2013-01-13 22:12:00,
2013-01-13 14:22:00,54.0,20.0,-100.00,WSW,238,6.0,12.0,26,-99.99,,,-99.99,,2013-01-13 22:22:00,
2013-01-13 14:33:00,54.0,21.0,-100.00,SW,227,5.0,11.0,27,-99.99,,,-99.99,,2013-01-13 22:33:00,
2013-01-13 14:42:00,54.0,21.0,-100.00,SW,227,5.0,11.0,27,-99.99,,,-99.99,,2013-01-13 22:42:00,
2013-01-13 14:52:00,53.0,20.0,-100.00,SSW,208,4.0,9.0,27,-99.99,,,-99.99,,2013-01-13 22:52:00,
2013-01-13 15:02:00,53.0,22.0,-100.00,SW,226,4.0,10.0,29,-99.99,,,-99.99,,2013-01-13 23:02:00,
2013-01-13 15:12:00,54.0,22.0,-100.00,SW,214,4.0,8.0,29,-99.99,,,-99.99,,2013-01-13 23:12:00,
2013-01-13 15:22:00,54.0,22.0,-100.00,SW,233,4.0,9.0,28,-99.99,,,-99.99,,2013-01-13 23:22:00,
2013-01-13 15:32:00,53.0,21.0,-100.00,WSW,246,5.0,11.0,28,-99.99,,,-99.99,,2013-01-13 23:32:00,
2013-01-13 15:42:00,53.0,20.0,-100.00,SW,233,4.0,9.0,27,-99.99,,,-99.99,,2013-01-13 23:42:00,
2013-01-13 15:52:00,53.0,20.0,-100.00,WSW,244,4.0,8.0,27,-99.99,,,-99.99,,2013-01-13 23:52:00,
2013-01-13 16:02:00,53.0,19.0,-100.00,WSW,251,3.0,8.0,26,-99.99,,,-99.99,,2013-01-14 00:02:00,
2013-01-13 16:12:00,53.0,19.0,-100.00,WSW,252,3.0,8.0,26,-99.99,,,-99.99,,2013-01-14 00:12:00,
2013-01-13 16:22:00,53.0,18.0,-100.00,SW,236,3.0,7.0,25,-99.99,,,-99.99,,2013-01-14 00:22:00,
2013-01-13 16:32:00,53.0,18.0,-100.00,WSW,242,3.0,7.0,25,-99.99,,,-99.99,,2013-01-14 00:32:00,
2013-01-13 16:42:00,53.0,19.0,-100.00,SW,231,4.0,8.0,26,-99.99,,,-99.99,,2013-01-14 00:42:00,
2013-01-13 16:52:00,52.0,19.0,-100.00,SW,235,3.0,6.0,27,-99.99,,,-99.99,,2013-01-14 00:52:00,
2013-01-13 17:02:00,51.0,19.0,-100.00,SW,229,3.0,7.0,28,-99.99,,,-99.99,,2013-01-14 01:02:00,
2013-01-13 17:12:00,50.0,18.0,-100.00,SW,227,2.0,5.0,28,-99.99,,,-99.99,,2013-01-14 01:12:00,
2013-01-13 17:22:00,50.0,19.0,-100.00,SW,220,1.0,4.0,29,-99.99,,,-99.99,,2013-01-14 01:22:00,
2013-01-13 17:32:00,49.0,19.0,-100.00,SW,236,1.0,4.0,30,-99.99,,,-99.99,,2013-01-14 01:32:00,
2013-01-13 17:42:00,49.0,20.0,-100.00,WSW,240,1.0,4.0,31,-99.99,,,-99.99,,2013-01-14 01:42:00,
2013-01-13 17:52:00,48.0,20.0,-100.00,SW,220,1.0,5.0,33,-99.99,,,-99.99,,2013-01-14 01:52:00,
2013-01-13 18:02:00,46.0,21.0,-100.00,East,80,1.0,3.0,37,-99.99,,,-99.99,,2013-01-14 02:02:00,
2013-01-13 18:12:00,44.0,21.0,-100.00,NE,54,3.0,6.0,40,-99.99,,,-99.99,,2013-01-14 02:12:00,
2013-01-13 18:22:00,42.0,22.0,-100.00,NE,42,2.0,5.0,44,-99.99,,,-99.99,,2013-01-14 02:22:00,
2013-01-13 18:32:00,41.0,22.0,-100.00,NNE,28,2.0,5.0,47,-99.99,,,-99.99,,2013-01-14 02:32:00,
2013-01-13 18:42:00,41.0,23.0,-100.00,North,7,2.0,5.0,48,-99.99,,,-99.99,,2013-01-14 02:42:00,
2013-01-13 18:53:00,41.0,23.0,-100.00,North,8,2.0,3.0,49,-99.99,,,-99.99,,2013-01-14 02:53:00,
2013-01-13 19:02:00,40.0,23.0,-100.00,North,5,1.0,3.0,50,-99.99,,,-99.99,,2013-01-14 03:02:00,
2013-01-13 19:12:00,40.0,23.0,-100.00,NNE,16,1.0,3.0,50,-99.99,,,-99.99,,2013-01-14 03:12:00,
2013-01-13 19:22:00,39.0,22.0,-100.00,NNE,15,1.0,3.0,51,-99.99,,,-99.99,,2013-01-14 03:22:00,
2013-01-13 19:32:00,39.0,23.0,-100.00,North,5,1.0,5.0,53,-99.99,,,-99.99,,2013-01-14 03:32:00,
2013-01-13 19:42:00,39.0,23.0,-100.00,North,8,1.0,4.0,53,-99.99,,,-99.99,,2013-01-14 03:42:00,
2013-01-13 19:52:00,38.0,24.0,-100.00,NNE,12,1.0,3.0,56,-99.99,,,-99.99,,2013-01-14 03:52:00,
2013-01-13 20:02:00,38.0,25.0,-100.00,North,5,1.0,3.0,58,-99.99,,,-99.99,,2013-01-14 04:02:00,
2013-01-13 20:12:00,38.0,25.0,-100.00,NNW,347,2.0,5.0,58,-99.99,,,-99.99,,2013-01-14 04:12:00,
2013-01-13 20:22:00,38.0,24.0,-100.00,North,349,2.0,5.0,57,-99.99,,,-99.99,,2013-01-14 04:22:00,
2013-01-13 20:32:00,38.0,25.0,-100.00,NNW,339,1.0,4.0,58,-99.99,,,-99.99,,2013-01-14 04:32:00,
2013-01-13 20:42:00,38.0,25.0,-100.00,NNW,335,2.0,5.0,58,-99.99,,,-99.99,,2013-01-14 04:42:00,
2013-01-13 20:52:00,38.0,25.0,-100.00,NNW,342,2.0,5.0,58,-99.99,,,-99.99,,2013-01-14 04:52:00,
2013-01-13 21:03:00,38.0,24.0,-100.00,NNW,332,2.0,4.0,57,-99.99,,,-99.99,,2013-01-14 05:03:00,
2013-01-13 21:12:00,38.0,24.0,-100.00,NNW,341,1.0,4.0,57,-99.99,,,-99.99,,2013-01-14 05:12:00,
2013-01-13 21:22:00,38.0,24.0,-100.00,NNW,341,1.0,4.0,56,-99.99,,,-99.99,,2013-01-14 05:22:00,
2013-01-13 21:32:00,38.0,23.0,-100.00,NNW,338,2.0,4.0,55,-99.99,,,-99.99,,2013-01-14 05:32:00,
2013-01-13 21:42:00,38.0,22.0,-100.00,NNW,334,2.0,5.0,53,-99.99,,,-99.99,,2013-01-14 05:42:00,
2013-01-13 21:52:00,38.0,22.0,-100.00,North,352,1.0,4.0,53,-99.99,,,-99.99,,2013-01-14 05:52:00,
2013-01-13 22:02:00,38.0,23.0,-100.00,North,352,1.0,4.0,54,-99.99,,,-99.99,,2013-01-14 06:02:00,
2013-01-13 22:11:00,38.0,22.0,-100.00,NNW,342,1.0,4.0,53,-99.99,,,-99.99,,2013-01-14 06:11:00,
2013-01-13 22:22:00,38.0,22.0,-100.00,North,0,1.0,4.0,52,-99.99,,,-99.99,,2013-01-14 06:22:00,
2013-01-13 22:32:00,37.0,21.0,-100.00,NNE,24,1.0,4.0,52,-99.99,,,-99.99,,2013-01-14 06:32:00,
2013-01-13 22:42:00,37.0,21.0,-100.00,NE,38,1.0,3.0,53,-99.99,,,-99.99,,2013-01-14 06:42:00,
2013-01-13 22:52:00,37.0,21.0,-100.00,North,354,1.0,3.0,52,-99.99,,,-99.99,,2013-01-14 06:52:00,
2013-01-13 23:02:00,37.0,21.0,-100.00,ENE,62,0.0,1.0,53,-99.99,,,-99.99,,2013-01-14 07:02:00,
2013-01-13 23:12:00,37.0,21.0,-100.00,NE,37,1.0,2.0,52,-99.99,,,-99.99,,2013-01-14 07:12:00,
2013-01-13 23:22:00,36.0,21.0,-100.00,North,7,0.0,1.0,53,-99.99,,,-99.99,,2013-01-14 07:22:00,
2013-01-13 23:32:00,36.0,21.0,-100.00,NW,311,1.0,2.0,55,-99.99,,,-99.99,,2013-01-14 07:32:00,
2013-01-13 23:42:00,36.0,21.0,-100.00,NW,311,1.0,2.0,55,-99.99,,,-99.99,,2013-01-14 07:42:00,
2013-01-13 23:52:00,34.0,22.0,-100.00,ESE,115,1.0,1.0,61,-99.99,,,-99.99,,2013-01-14 07:52:00,